Temp
64 64 64 65 64 64 64 64 64 63 63 63 64 64 64 64 64 62 58 66 65 69 67 63 65 64 63 58 60 60 49 47 51 53 54 57 57 63 65 64 63 65 66 63 62
64 64 64 64 64 63 64 64 64 63 63 63 64 63 64 64 60 57 66 70 69 68 62 60 58 61 55 55 55 54 48 50 59 58 56 57 58 59 61 61 63 64 65 61 62
63 63 64 64 64 63 63 63 63 63 62 62 63 63 63 63 55 56 68 69 69 67 63 62 61 59 54 54 53 52 49 55 58 60 61 58 57 60 60 58 64 64 64 59 60
62 63 63 63 63 63 63 62 63 62 62 62 62 63 61 59 42 57 67 68 68 65 63 59 60 54 50 50 52 50 54 57 59 60 58 57 60 58 59 63 66 65 65 60 59
61 62 62 62 62 63 63 63 62 62 62 62 62 62 58 52 52 61 66 66 64 61 60 59 57 56 51 51 50 49 53 56 59 58 58 58 56 58 57 63 65 63 61 61 61
61 61 61 61 62 62 63 63 62 62 62 62 62 62 53 47 61 61 61 61 60 60 60 59 58 59 54 53 50 52 53 54 55 55 56 54 55 56 59 63 63 62 61 61 62
60 60 60 61 61 62 62 62 62 62 62 63 62 57 51 51 60 59 61 58 60 60 58 60 61 57 54 48 53 52 49 51 51 53 52 54 49 51 62 62 61 61 61 60 61
60 60 60 60 61 61 61 62 62 61 61 62 61 54 46 59 59 60 58 57 59 60 61 61 61 57 54 52 52 49 48 45 51 52 53 54 46 55 62 59 59 59 60 59 61
59 59 60 60 60 60 61 61 61 61 62 61 54 52 46 59 54 57 60 55 56 57 60 63 60 52 52 47 44 46 42 43 47 52 53 49 45 56 62 58 58 59 59 59 59
58 59 59 59 59 60 60 60 60 59 56 56 55 47 49 48 52 54 57 57 56 55 53 53 49 45 46 45 37 41 41 43 43 49 50 46 46 52 57 56 56 57 58 57 58
57 58 59 59 59 60 58 52 46 45 49 44 47 46 48 51 55 52 54 54 54 52 45 49 44 40 45 47 46 44 45 44 47 52 49 48 48 51 56 56 55 58 57 59 60
57 58 58 59 60 60 56 45 46 48 41 48 49 50 50 53 47 51 55 48 47 45 48 44 40 47 48 47 45 45 42 41 46 52 47 45 46 51 53 55 58 60 61 60 62
56 57 58 59 58 56 52 49 54 51 38 44 49 49 48 51 47 47 53 48 44 44 44 42 45 51 48 46 43 43 42 43 44 47 47 44 44 48 53 57 58 60 62 64 62
56 56 57 58 52 53 48 53 57 51 32 34 41 47 48 49 43 52 54 50 45 41 45 43 50 46 44 43 46 39 48 47 43 41 37 45 35 45 49 52 52 55 58 61 63
56 56 57 58 52 49 52 54 51 49 17 37 39 53 48 45 44 47 53 49 42 41 44 40 42 42 41 44 48 43 49 46 44 40 39 40 36 41 49 49 53 54 59 61 63
55 55 56 53 53 56 57 52 47 26 17 29 40 41 42 43 42 47 47 50 51 44 40 41 46 47 45 49 49 49 45 44 43 41 32 40 39 42 47 50 54 57 60 61 62
55 55 53 53 48 53 53 45 29 20 31 29 35 41 40 39 41 41 42 41 38 33 35 41 41 44 49 43 47 46 41 32 30 30 31 38 37 42 48 53 52 56 59 60 60
55 55 53 53 55 52 48 33 22 23 23 35 35 40 36 38 41 40 38 37 43 36 35 34 31 41 45 44 40 41 41 33 27 26 28 35 32 39 50 56 59 56 58 58 56
54 48 48 51 51 51 39 26 26 30 29 32 37 33 34 39 36 40 36 37 41 43 35 31 31 42 45 45 46 40 37 43 35 26 27 33 36 44 48 51 52 54 55 55 56
45 43 44 51 51 46 34 33 31 37 35 37 27 32 28 34 34 36 36 42 39 44 48 40 33 39 41 46 46 41 44 35 35 27 25 30 31 37 45 52 56 54 53 55 55
43 36 44 51 48 40 30 31 32 34 39 31 27 29 30 32 35 34 31 38 45 40 46 42 37 36 40 39 40 39 38 39 38 34 29 23 33 41 48 50 51 52 52 52 53
35 30 43 48 33 32 32 32 36 34 35 35 33 30 29 31 33 36 31 37 43 42 38 42 35 32 36 41 45 46 39 39 33 29 31 28 36 47 46 49 49 52 54 53 51
32 34 44 46 29 30 32 31 34 34 35 35 32 35 35 33 30 32 36 41 42 44 40 43 33 29 31 36 39 39 43 44 42 37 30 28 36 46 47 48 49 49 51 52 52
33 28 33 37 33 32 31 30 29 34 34 34 33 35 35 33 33 33 34 38 42 43 46 46 35 33 29 32 37 36 40 43 42 33 35 35 39 46 50 51 52 56 51 52 53
32 31 32 27 31 32 37 34 30 30 33 35 32 34 34 30 31 33 34 35 38 43 42 39 28 34 36 34 37 36 38 41 38 40 35 40 40 46 51 49 53 55 51 52 53
32 31 33 32 34 31 35 33 33 29 31 32 33 35 35 33 34 34 39 37 35 39 38 39 32 33 31 35 37 33 36 37 41 39 39 40 40 51 53 54 50 53 55 53 51
36 37 32 34 33 31 30 33 34 34 33 35 35 35 34 35 37 38 38 38 38 36 35 36 33 31 26 31 32 27 34 38 37 43 43 36 44 51 48 48 49 51 53 54 56
MSLP
1015.96 1016.40 1016.91 1017.29 1017.36 1017.74 1018.11 1018.39 1018.74 1018.92 1018.89 1018.89 1018.90 1018.89 1018.84 1018.95 1018.96 1019.12 1018.80 1018.31 1018.57 1018.70 1019.00 1019.03 1018.78 1019.06 1019.38 1020.21 1020.57 1020.66 1021.04 1021.18 1020.81 1020.82 1020.58 1020.42 1020.14 1019.78 1019.57 1019.48 1019.50 1019.34 1019.35 1019.84 1020.00
1015.34 1015.91 1016.40 1016.76 1017.07 1017.42 1017.77 1018.08 1018.44 1018.70 1018.78 1018.79 1018.91 1018.85 1018.88 1018.90 1019.04 1018.82 1018.14 1018.01 1018.42 1018.70 1019.25 1019.25 1019.23 1019.40 1020.13 1020.75 1021.01 1021.03 1021.09 1020.57 1019.59 1019.76 1020.06 1019.94 1020.34 1020.20 1020.00 1019.88 1019.65 1019.36 1019.42 1019.86 1020.62
1014.68 1015.30 1015.87 1016.25 1016.70 1017.09 1017.38 1017.75 1018.08 1018.27 1018.65 1018.63 1018.83 1018.89 1018.82 1018.87 1019.06 1018.05 1017.42 1017.82 1018.17 1018.61 1019.24 1019.33 1019.41 1019.62 1020.44 1020.80 1021.03 1021.07 1020.82 1020.38 1020.00 1019.19 1019.18 1019.27 1019.89 1020.09 1020.10 1019.84 1019.50 1019.60 1019.68 1020.35 1020.68
1014.08 1014.61 1015.30 1015.80 1016.30 1016.78 1017.09 1017.43 1017.79 1017.94 1018.31 1018.51 1018.68 1018.82 1018.79 1019.00 1018.85 1017.73 1017.35 1017.48 1017.90 1018.57 1019.27 1019.53 1019.59 1019.91 1020.46 1020.88 1020.98 1021.15 1020.60 1020.22 1019.88 1019.44 1019.60 1019.26 1019.02 1019.67 1019.58 1019.12 1018.92 1019.06 1019.46 1019.82 1020.19
1013.43 1014.08 1014.57 1015.32 1015.78 1016.32 1016.78 1017.20 1017.52 1017.67 1018.02 1018.36 1018.45 1018.78 1018.89 1018.99 1018.06 1017.63 1017.35 1017.11 1018.01 1018.72 1019.07 1019.50 1019.74 1020.00 1020.37 1020.61 1021.14 1021.01 1020.52 1020.08 1019.55 1019.85 1019.66 1019.49 1019.09 1018.63 1018.63 1018.23 1018.42 1018.62 1019.19 1019.19 1019.33
1012.94 1013.42 1013.97 1014.78 1015.32 1015.85 1016.40 1016.87 1017.22 1017.61 1017.79 1018.19 1018.39 1018.54 1018.95 1018.44 1017.62 1017.59 1017.59 1017.79 1018.21 1018.77 1019.08 1019.37 1019.35 1019.67 1020.22 1020.50 1020.86 1020.47 1020.27 1020.01 1019.86 1019.91 1020.15 1020.08 1019.44 1019.47 1017.87 1017.34 1017.96 1018.22 1018.40 1018.69 1018.82
1012.28 1012.75 1013.31 1014.11 1014.85 1015.45 1016.04 1016.63 1017.01 1017.43 1017.67 1018.08 1018.32 1018.56 1018.67 1017.88 1017.62 1017.72 1017.72 1018.04 1018.14 1018.60 1019.00 1019.35 1019.45 1020.06 1020.44 1020.72 1020.68 1020.59 1020.44 1020.06 1019.89 1019.96 1020.20 1020.33 1019.61 1018.89 1017.03 1017.15 1017.20 1017.36 1017.47 1018.03 1018.09
1011.50 1012.10 1012.62 1013.31 1014.16 1014.98 1015.70 1016.36 1016.89 1017.28 1017.45 1018.01 1018.36 1018.64 1018.37 1017.39 1017.50 1017.71 1018.05 1018.40 1018.42 1018.66 1018.91 1019.18 1019.47 1019.99 1020.51 1020.75 1020.73 1020.70 1020.68 1020.33 1019.66 1019.84 1020.16 1020.26 1018.89 1018.40 1017.18 1017.26 1017.19 1017.24 1017.04 1017.19 1017.34
1010.82 1011.25 1012.02 1012.34 1013.40 1014.36 1015.25 1016.16 1016.70 1017.16 1017.36 1017.95 1018.60 1018.46 1018.26 1017.61 1017.61 1017.67 1017.74 1018.50 1018.81 1019.09 1019.33 1019.20 1019.58 1020.00 1020.64 1020.75 1020.75 1020.57 1020.31 1020.24 1019.98 1019.44 1019.80 1020.01 1019.24 1018.33 1017.34 1017.30 1016.88 1016.34 1016.36 1016.52 1016.67
1010.21 1010.63 1011.29 1011.91 1012.45 1013.64 1014.76 1015.84 1016.74 1017.29 1017.86 1018.37 1018.59 1018.88 1018.03 1017.52 1017.44 1017.61 1017.86 1018.49 1018.82 1019.24 1019.79 1019.86 1020.14 1020.38 1020.39 1020.41 1019.78 1020.08 1020.12 1019.85 1019.53 1019.23 1019.16 1019.27 1018.54 1018.16 1017.27 1017.22 1017.00 1016.59 1016.01 1015.83 1015.66
1009.53 1010.00 1010.56 1011.25 1012.09 1012.67 1014.41 1016.15 1017.48 1017.97 1017.51 1017.07 1017.21 1017.25 1016.90 1017.29 1017.42 1017.90 1018.01 1018.47 1018.84 1019.12 1019.50 1019.64 1019.79 1019.31 1019.92 1019.87 1020.01 1019.72 1019.85 1019.44 1019.05 1018.82 1018.89 1018.57 1018.19 1017.59 1016.67 1016.04 1016.02 1015.54 1015.41 1014.99 1014.44
1008.84 1009.41 1009.90 1010.50 1011.45 1011.60 1013.21 1014.05 1014.27 1014.55 1016.75 1016.97 1017.03 1016.83 1016.75 1016.83 1017.47 1017.91 1018.11 1018.61 1018.90 1018.79 1019.14 1019.60 1018.46 1019.20 1019.60 1019.90 1019.96 1019.71 1019.47 1019.08 1019.18 1018.74 1018.87 1018.37 1017.08 1016.82 1015.93 1015.07 1014.89 1014.49 1014.09 1013.74 1013.59
1008.16 1008.78 1009.36 1009.87 1010.46 1011.09 1011.92 1012.82 1013.59 1014.11 1015.96 1016.83 1016.86 1016.56 1016.55 1016.89 1016.84 1017.38 1017.81 1018.02 1018.41 1018.63 1018.60 1018.47 1018.29 1018.84 1019.33 1019.29 1019.46 1019.21 1018.96 1019.32 1019.24 1019.05 1018.77 1018.61 1016.04 1015.59 1014.46 1013.41 1013.19 1012.85 1012.43 1012.49 1012.10
1007.58 1008.17 1008.74 1009.53 1011.24 1009.96 1011.20 1012.56 1012.99 1013.75 1015.55 1016.49 1016.41 1015.78 1016.17 1016.60 1016.85 1016.59 1016.99 1017.36 1018.11 1018.16 1018.55 1018.51 1018.01 1018.34 1018.75 1018.32 1018.88 1018.50 1018.73 1019.36 1019.32 1019.59 1018.69 1018.42 1015.53 1014.26 1013.72 1012.63 1012.32 1011.82 1011.35 1011.15 1010.90
1006.87 1007.54 1008.21 1008.91 1008.52 1009.04 1008.63 1011.93 1013.23 1013.93 1015.81 1015.04 1015.27 1014.61 1015.19 1016.18 1016.24 1016.63 1016.54 1016.99 1017.27 1017.64 1018.23 1017.49 1017.71 1018.15 1017.81 1017.69 1018.21 1018.05 1018.26 1018.73 1019.08 1018.95 1019.32 1018.09 1017.72 1012.51 1012.42 1012.11 1011.63 1010.90 1010.16 1009.72 1009.42
1006.29 1006.94 1007.79 1008.44 1008.93 1008.69 1009.51 1011.86 1013.54 1015.96 1014.75 1014.43 1014.23 1014.44 1015.27 1015.58 1016.02 1016.32 1016.67 1016.94 1017.13 1017.46 1017.58 1017.51 1017.46 1017.30 1017.07 1017.42 1017.74 1018.11 1018.70 1018.85 1018.89 1018.74 1017.77 1015.32 1017.04 1011.34 1011.83 1011.21 1010.13 1009.66 1009.29 1008.72 1008.26
1005.56 1006.35 1007.27 1007.91 1007.38 1008.45 1008.98 1012.06 1013.35 1013.56 1013.62 1014.17 1013.36 1013.50 1013.99 1014.73 1015.71 1015.96 1016.33 1016.49 1016.71 1017.09 1017.13 1017.66 1017.13 1017.19 1016.98 1017.25 1017.39 1017.89 1018.52 1018.57 1018.56 1018.55 1017.06 1016.08 1016.24 1011.80 1011.00 1010.01 1009.58 1009.11 1008.48 1007.74 1007.55
1004.96 1005.78 1006.55 1006.94 1007.79 1008.73 1008.38 1010.84 1011.30 1012.50 1012.82 1012.65 1012.64 1013.51 1014.12 1014.41 1015.09 1015.52 1015.99 1016.23 1016.38 1016.51 1016.69 1016.68 1016.87 1016.70 1016.43 1016.55 1016.97 1017.39 1017.41 1017.88 1017.94 1018.29 1017.62 1016.79 1014.43 1011.36 1010.14 1009.37 1008.83 1008.70 1008.01 1007.58 1007.64
1004.72 1005.53 1006.06 1006.34 1007.57 1007.45 1008.25 1009.64 1009.66 1010.52 1011.08 1011.47 1013.18 1013.77 1014.56 1014.47 1014.27 1015.08 1015.25 1015.33 1015.12 1015.30 1015.92 1016.12 1015.83 1015.11 1015.57 1016.13 1016.66 1016.80 1017.26 1017.70 1018.05 1018.72 1018.01 1015.95 1013.08 1011.48 1010.13 1009.24 1008.82 1008.31 1007.45 1007.29 1007.28
1004.08 1004.98 1005.17 1006.02 1006.59 1006.85 1007.45 1006.96 1008.86 1009.86 1009.27 1011.12 1012.14 1012.46 1013.27 1013.61 1014.47 1014.62 1014.77 1013.58 1014.28 1014.20 1014.88 1015.41 1015.71 1015.03 1015.64 1015.89 1016.07 1015.97 1016.20 1017.70 1017.82 1017.96 1016.95 1014.51 1013.51 1011.42 1010.04 1008.91 1007.99 1007.73 1007.80 1007.49 1007.20
1003.91 1004.35 1004.38 1004.99 1006.54 1006.32 1006.09 1006.40 1008.07 1008.69 1008.67 1010.66 1011.06 1011.85 1012.60 1012.61 1013.47 1014.03 1013.71 1013.36 1013.25 1014.06 1014.76 1015.52 1015.99 1015.34 1015.38 1014.70 1014.46 1015.67 1016.02 1016.48 1016.81 1016.47 1016.07 1014.64 1011.55 1009.81 1008.70 1008.22 1008.19 1007.98 1007.58 1007.65 1007.32
1003.59 1003.82 1004.01 1004.94 1006.04 1005.22 1005.39 1006.95 1007.36 1009.30 1009.65 1010.09 1010.29 1010.62 1011.29 1011.84 1013.31 1013.75 1013.21 1012.71 1012.56 1013.50 1014.23 1014.97 1015.53 1014.97 1014.53 1014.43 1014.32 1014.46 1014.84 1015.59 1015.24 1015.51 1015.34 1014.43 1010.09 1008.36 1008.33 1008.49 1008.14 1007.83 1007.67 1007.18 1007.42
1002.92 1003.28 1003.33 1003.77 1003.98 1004.39 1005.28 1006.55 1007.52 1008.84 1009.27 1009.66 1009.72 1009.38 1010.31 1011.87 1013.08 1012.93 1012.73 1012.53 1012.53 1012.90 1013.26 1014.12 1015.03 1014.90 1015.04 1015.08 1014.38 1013.88 1013.90 1014.21 1014.60 1014.59 1013.72 1013.60 1009.69 1008.14 1008.07 1007.99 1007.62 1007.59 1007.66 1007.54 1007.20
1002.30 1003.47 1003.08 1002.20 1002.76 1003.59 1004.67 1006.08 1007.35 1008.09 1008.07 1008.74 1009.38 1009.44 1010.46 1011.93 1012.19 1012.29 1012.54 1012.61 1012.69 1012.76 1013.02 1013.48 1014.05 1014.18 1014.43 1014.34 1013.89 1013.82 1013.28 1013.64 1013.97 1013.71 1012.25 1011.85 1008.88 1008.18 1007.87 1007.94 1007.64 1007.41 1007.29 1007.28 1006.95
1002.51 1002.45 1002.45 1002.58 1003.38 1003.89 1004.13 1004.94 1006.47 1007.88 1008.36 1008.52 1009.62 1009.04 1009.66 1011.24 1012.04 1011.97 1012.27 1013.01 1013.28 1013.03 1013.23 1013.62 1014.07 1014.69 1014.82 1014.72 1014.17 1013.92 1013.46 1013.24 1013.14 1012.06 1012.57 1008.53 1008.98 1007.12 1007.57 1008.09 1007.48 1007.31 1007.14 1006.80 1006.46
1001.87 1002.00 1002.62 1002.61 1002.92 1003.41 1003.83 1004.92 1005.21 1007.11 1007.26 1007.91 1008.22 1009.02 1009.47 1009.91 1010.35 1010.95 1011.65 1012.56 1013.13 1013.64 1013.59 1014.00 1014.44 1014.76 1015.07 1014.98 1014.70 1014.30 1013.33 1013.16 1012.36 1012.08 1011.70 1009.96 1008.65 1005.91 1007.34 1008.07 1007.87 1007.19 1006.49 1006.28 1006.19
1001.35 1001.87 1001.61 1001.96 1002.47 1003.27 1004.01 1004.99 1005.71 1006.10 1007.48 1007.33 1007.88 1008.60 1009.19 1009.70 1010.23 1011.21 1011.82 1012.37 1012.49 1013.19 1013.76 1014.21 1014.76 1015.43 1015.64 1015.28 1014.83 1013.98 1012.08 1012.43 1012.19 1011.70 1010.83 1010.37 1006.49 1005.30 1007.79 1007.85 1006.83 1006.01 1005.78 1005.27 1005.23
Wind_Speed
18 16 16 15 13 16 14 12 10 8 7 6 5 4 3 1 8 2 5 3 1 3 4 2 3 3 4 4 4 2 4 4 5 3 4 4 7 5 2 2 2 3 2 2 7
20 18 17 17 14 16 15 14 11 8 7 7 6 3 3 5 3 6 6 4 1 4 1 3 2 2 4 3 2 3 4 11 8 8 5 1 3 4 5 7 4 4 2 5 8
21 20 18 17 15 14 17 15 13 10 7 6 5 4 3 5 1 6 12 12 6 7 2 1 4 4 4 2 3 4 5 2 5 4 6 5 1 3 1 5 6 6 3 4 7
23 22 20 18 16 15 14 16 14 10 8 6 5 4 3 2 6 1 3 11 11 8 5 3 2 5 4 5 3 3 5 6 5 5 4 5 8 4 8 10 3 8 6 7 12
23 22 21 19 18 15 14 13 14 11 8 8 5 3 5 4 5 1 4 4 8 8 7 5 4 4 5 5 5 4 4 4 8 4 7 3 8 9 8 10 6 7 7 11 13
23 23 22 20 19 17 15 13 10 11 9 9 7 0 2 8 2 3 7 8 5 6 4 5 5 2 1 3 6 5 3 3 1 3 5 4 6 4 10 12 7 5 8 10 13
18 23 24 23 20 18 16 14 14 10 9 9 9 4 2 6 4 6 3 2 8 6 5 2 4 3 4 3 2 2 3 3 4 3 4 3 10 11 19 5 9 9 8 7 13
18 22 24 25 23 20 18 15 12 11 9 9 7 3 5 3 5 5 2 4 4 1 1 7 4 4 1 3 2 2 1 7 2 9 5 8 14 8 11 7 9 8 7 8 12
18 18 22 28 25 22 19 16 12 10 11 9 2 4 5 5 5 4 6 4 5 4 4 3 2 3 3 3 2 4 7 5 6 7 3 7 2 6 6 7 12 10 9 8 9
20 18 21 22 25 24 20 16 9 5 4 3 3 4 3 5 4 6 3 8 4 9 4 4 3 4 5 7 10 7 5 4 7 6 7 8 14 15 14 7 11 10 10 8 9
20 19 20 26 27 27 21 10 7 3 6 6 8 3 4 4 3 3 4 6 4 3 7 5 10 15 15 13 7 4 6 11 3 6 6 11 13 13 16 11 14 15 14 15 15
20 21 20 21 29 31 20 10 10 9 8 8 2 7 3 4 5 6 7 7 6 10 10 5 17 7 7 10 8 11 14 15 5 4 6 7 18 12 14 17 15 19 18 17 17
20 20 21 21 27 27 22 18 12 8 7 10 5 7 5 6 4 12 13 7 5 11 15 13 3 12 9 10 14 14 16 9 6 2 4 7 22 16 15 22 19 21 22 19 20
21 21 21 20 19 20 22 16 14 4 5 6 11 7 6 6 3 5 15 8 5 15 7 10 8 7 17 18 14 19 14 18 15 6 11 6 19 6 7 14 12 17 19 21 23
20 20 22 24 6 15 21 12 8 6 8 8 9 6 11 11 9 10 6 3 10 9 9 6 10 14 12 10 12 6 5 11 12 12 10 14 10 6 11 16 16 14 20 20 22
21 19 20 13 13 19 23 15 8 7 9 6 10 16 13 10 5 7 5 2 1 8 1 9 1 6 7 11 12 3 5 9 9 7 12 25 14 20 14 17 13 12 18 16 18
24 19 17 9 15 14 20 14 12 8 3 11 12 20 22 13 12 8 15 13 9 7 14 9 8 1 5 3 7 14 7 4 5 6 10 3 10 23 9 11 9 14 15 13 12
19 20 14 10 9 17 18 12 9 7 8 5 10 16 22 13 17 9 10 13 14 4 4 7 8 21 8 12 5 7 8 5 4 4 3 2 13 9 9 14 15 9 17 13 7
22 10 11 9 8 15 15 19 10 17 12 12 19 18 11 13 8 14 11 11 12 15 13 7 7 3 6 6 12 7 12 10 6 3 3 6 10 7 10 14 8 14 12 14 8
10 8 9 12 13 11 18 18 13 9 9 17 8 7 17 24 14 20 16 16 10 17 11 3 5 5 8 5 7 5 7 5 7 8 7 6 7 9 7 13 10 10 7 9 9
9 6 6 17 8 10 17 4 6 2 15 8 5 9 8 19 16 18 8 3 21 10 15 6 3 2 12 15 18 8 5 5 3 3 5 3 8 9 14 9 8 8 6 8 10
5 7 7 15 13 4 13 15 7 9 1 5 5 6 7 11 18 19 13 10 9 14 18 12 2 3 10 1 7 13 9 9 4 4 4 2 13 2 8 8 4 7 8 6 8
5 1 2 20 14 7 8 9 6 9 6 7 4 4 4 11 11 6 12 6 9 18 17 12 5 3 2 4 3 8 14 15 13 2 10 3 12 4 1 5 8 7 7 9 9
4 4 2 2 2 8 17 14 9 2 5 5 6 5 9 9 3 14 8 4 8 9 9 14 5 4 6 2 3 9 12 17 13 6 15 17 29 19 17 14 12 16 8 8 8
2 3 3 4 10 11 14 19 17 8 2 5 2 6 9 7 4 5 6 4 3 6 5 5 6 7 6 4 4 1 10 14 14 21 11 29 20 24 18 9 13 12 9 8 8
5 3 2 4 16 19 8 14 21 4 7 8 9 11 5 9 9 13 13 6 6 4 6 3 3 3 4 4 9 7 11 11 22 21 20 25 30 32 23 19 14 18 21 17 10
0 3 3 12 12 13 7 21 18 11 5 6 12 9 6 6 8 6 5 7 8 9 6 8 6 3 2 3 2 7 19 22 16 19 20 19 36 32 12 14 15 15 16 19 17
Wind_Direction
215 223 225 232 215 210 209 212 220 228 240 255 269 316 303 326 132 157 206 178 150 137 0 297 38 44 60 73 20 355 78 159 191 182 265 356 30 342 289 286 293 245 189 343 131
210 212 218 225 225 211 208 208 214 216 223 233 253 287 275 166 177 220 242 200 257 130 342 215 155 81 66 69 46 111 149 206 181 173 199 231 118 335 7 339 268 295 205 91 157
209 207 210 215 223 217 207 207 207 206 212 215 230 248 220 185 311 239 216 194 196 157 253 264 122 107 116 150 192 140 185 184 268 195 172 169 160 166 200 290 242 265 333 155 187
209 205 205 206 211 219 210 211 206 196 201 208 214 240 172 203 203 332 347 209 169 146 143 137 146 128 140 172 157 164 239 179 236 232 180 214 149 204 176 235 251 265 245 180 196
212 205 202 203 201 208 210 198 205 193 194 205 203 200 138 197 244 308 11 146 126 142 171 166 163 137 190 167 130 169 232 207 252 252 248 62 226 207 210 239 250 274 202 211 205
225 206 198 199 197 199 205 196 190 193 188 204 201 87 219 213 105 64 103 101 123 136 170 167 193 154 208 167 190 188 225 230 254 214 263 256 273 132 249 225 221 211 227 230 223
227 216 197 193 193 192 195 196 191 189 190 203 201 135 238 210 120 88 85 130 155 153 145 200 122 139 143 161 195 165 269 288 235 212 218 198 273 218 249 210 243 226 228 231 235
214 224 204 190 189 186 185 185 190 188 191 196 146 96 235 245 154 91 90 63 119 121 166 148 140 115 273 150 86 196 189 248 207 179 237 153 265 271 256 186 244 255 253 225 234
217 209 214 190 185 179 176 178 175 190 193 174 146 189 227 117 157 156 122 128 98 72 31 118 82 151 127 194 210 184 255 242 294 188 133 181 263 276 278 228 250 239 236 233 241
221 207 207 201 181 172 163 154 155 162 137 88 338 162 211 200 172 140 92 146 130 122 124 167 173 203 180 186 224 218 226 214 214 221 194 220 239 270 272 265 260 271 258 235 228
221 210 205 197 189 166 148 119 121 189 209 185 164 245 120 104 106 124 142 112 121 157 171 207 200 216 213 218 247 283 237 238 218 221 214 239 250 244 265 265 256 254 249 251 235
214 216 211 202 191 166 154 177 171 167 170 226 343 201 141 186 124 166 152 156 182 199 168 187 231 212 200 215 231 228 249 262 263 210 202 279 267 245 260 257 247 260 256 248 250
217 211 214 200 196 163 179 172 164 131 125 205 221 213 174 148 182 176 174 150 180 198 192 210 158 196 212 207 218 236 240 250 262 322 250 294 280 265 248 251 249 245 247 249 237
216 213 209 206 196 174 181 167 173 122 92 214 189 237 157 144 250 162 188 150 190 203 189 237 224 207 211 221 198 234 221 241 258 272 264 136 284 250 272 270 235 240 244 244 240
216 213 212 196 209 207 153 141 126 58 178 201 170 162 148 169 136 189 178 203 173 166 174 207 169 196 213 213 198 236 160 222 228 238 264 241 267 299 216 250 260 238 248 239 239
209 205 207 206 224 204 148 131 83 123 222 158 144 172 160 180 177 130 159 63 189 189 227 215 287 196 222 201 214 107 234 272 264 261 226 242 220 267 238 244 255 253 251 250 239
206 201 206 199 218 160 138 140 178 184 238 161 176 177 178 170 177 163 179 192 191 163 201 209 207 180 168 166 192 191 194 238 231 202 250 209 207 246 299 284 232 248 261 250 248
205 199 213 214 196 170 151 162 188 165 203 161 153 174 191 149 199 160 156 201 212 166 136 197 194 214 180 201 165 200 205 218 207 213 286 34 229 260 240 252 260 268 258 277 259
202 201 200 206 172 174 166 190 177 179 160 126 133 161 192 198 154 181 201 204 201 193 199 182 242 74 199 159 164 179 220 220 273 159 243 216 284 270 245 271 284 252 257 268 274
184 200 207 163 173 189 177 204 160 183 109 140 139 169 180 186 181 190 183 214 210 191 200 187 280 182 183 129 212 183 134 162 199 245 241 251 255 238 299 278 280 297 297 300 296
180 184 179 179 186 190 203 175 122 172 129 145 164 128 175 173 183 189 211 274 192 163 177 177 249 197 141 199 189 167 189 190 183 188 222 289 252 207 224 247 245 285 308 297 298
144 181 176 154 192 179 191 145 115 143 183 142 120 113 149 142 181 194 213 207 187 146 188 171 146 216 202 13 199 211 186 206 234 202 226 206 263 355 239 232 264 291 304 305 291
135 73 227 176 187 169 128 123 109 152 171 171 118 99 123 149 171 185 182 215 175 174 176 162 214 208 153 306 332 210 211 213 221 302 230 243 266 344 232 308 287 278 294 306 304
121 146 258 194 60 129 147 150 127 63 82 75 110 86 106 156 342 182 158 181 181 169 176 164 146 211 197 163 137 213 206 219 215 223 252 243 264 258 270 296 301 293 273 288 308
221 155 180 149 156 137 148 160 139 135 114 155 92 152 139 138 128 174 127 108 35 203 167 164 174 191 200 168 100 334 224 218 221 237 231 258 259 268 276 271 279 291 307 290 297
148 137 189 105 145 140 142 165 155 101 137 174 164 165 146 153 186 174 158 136 176 204 152 165 173 154 207 255 210 223 233 251 231 239 251 262 274 261 272 281 283 283 284 280 273
161 223 153 150 148 152 166 163 176 140 22 139 136 122 116 166 129 139 108 142 156 156 149 158 162 137 230 194 151 277 235 231 241 242 243 247 253 272 285 282 263 263 268 281 278